This is the latest recevied weather packets stored in our database for station/object W4ZHA. If no packets are shown the sender has not sent any weather packets the latest 10 day(s).
| Time | Temp. | Humidity | Pressure | Rain* | Wind** | Luminosity | Snow |
|---|---|---|---|---|---|---|---|
| 1787435680 | 34.44° C | 46% | 1014.1 hPa | 0 mm | - | 340 W/m² | - |
| 1787435376 | 33.33° C | 45% | 1014.1 hPa | 0 mm | - | 351 W/m² | - |
| 1787435072 | 34.44° C | 46% | 1014.1 hPa | 0 mm | - | 356 W/m² | - |
| 1787434767 | 33.89° C | 47% | 1013.8 hPa | 0 mm | - | 363 W/m² | - |
| 1787434464 | 33.89° C | 47% | 1014.1 hPa | 0 mm | - | 373 W/m² | - |
| 1787434159 | 33.89° C | 46% | 1014.1 hPa | 0 mm | - | 383 W/m² | - |
| 1787433855 | 34.44° C | 47% | 1014.1 hPa | 0 mm | - | 401 W/m² | - |
| 1787433550 | 33.89° C | 47% | 1014.4 hPa | 0 mm | - | 426 W/m² | - |
| 1787433245 | 32.22° C | 45% | 1014.4 hPa | 0 mm | - | 425 W/m² | - |
| 1787432942 | 32.22° C | 45% | 1014.4 hPa | 0 mm | - | 230 W/m² | - |
| 1787432638 | 32.78° C | 45% | 1014.4 hPa | 0 mm | - | 125 W/m² | - |
| 1787432336 | 33.89° C | 47% | 1014.4 hPa | 0 mm | - | 129 W/m² | - |
| 1787432032 | 33.89° C | 46% | 1014.4 hPa | 0 mm | - | 432 W/m² | - |
| 1787431731 | 33.89° C | 46% | 1014.4 hPa | 0 mm | - | 429 W/m² | - |
| 1787431426 | 33.33° C | 47% | 1014.4 hPa | 0 mm | - | 188 W/m² | - |
| 1787431123 | 33.89° C | 46% | 1014.4 hPa | 0 mm | - | 394 W/m² | - |
| 1787430819 | 32.22° C | 45% | 1014.4 hPa | 0 mm | - | 442 W/m² | - |
| 1787430514 | 32.22° C | 45% | 1014.4 hPa | 0 mm | - | 427 W/m² | - |
| 1787430212 | 32.78° C | 45% | 1014.8 hPa | 0 mm | - | 111 W/m² | - |
| 1787429907 | 33.89° C | 46% | 1014.8 hPa | 0 mm | - | 154 W/m² | - |
| 1787429607 | 33.33° C | 47% | 1014.8 hPa | 0 mm | - | 453 W/m² | - |
| 1787429302 | 33.33° C | 47% | 1014.8 hPa | 0 mm | - | 452 W/m² | - |
| 1787428999 | 32.78° C | 45% | 1014.8 hPa | 0 mm | - | 450 W/m² | - |
| 1787428693 | 32.78° C | 45% | 1015.1 hPa | 0 mm | - | 449 W/m² | - |
| 1787428389 | 32.78° C | 45% | 1015.1 hPa | 0 mm | - | 449 W/m² | - |
* Rain latest hour (hover to see other rain measurements)
** Current wind speed in m/s (hover to see current wind gust speed)